This is the latest recevied weather packets stored in our database for station/object OK0BH-6. If no packets are shown the sender has not sent any weather packets the latest 10 day(s).
| Time | Temp. | Humidity | Pressure | Rain* | Wind** | Luminosity | Snow |
|---|---|---|---|---|---|---|---|
| 1777457853 | 10° C | 34% | 1024 hPa | - | - | - | - |
| 1777457278 | 10° C | 34% | 1024 hPa | - | - | - | - |
| 1777456703 | 9.44° C | 34% | 1024.1 hPa | - | - | - | - |
| 1777456128 | 9.44° C | 34% | 1024.1 hPa | - | - | - | - |
| 1777455553 | 9.44° C | 34% | 1024 hPa | - | - | - | - |
| 1777454978 | 9.44° C | 34% | 1024 hPa | - | - | - | - |
| 1777454403 | 10° C | 34% | 1024.1 hPa | - | - | - | - |
| 1777453829 | 10° C | 34% | 1024 hPa | - | - | - | - |
| 1777453254 | 9.44° C | 34% | 1024.1 hPa | - | - | - | - |
| 1777452679 | 9.44° C | 34% | 1024.2 hPa | - | - | - | - |
| 1777452104 | 8.89° C | 34% | 1024.2 hPa | - | - | - | - |
| 1777451529 | 8.89° C | 34% | 1023.9 hPa | - | - | - | - |
| 1777450954 | 8.89° C | 34% | 1023.9 hPa | - | - | - | - |
| 1777450379 | 8.89° C | 34% | 1023.8 hPa | - | - | - | - |
| 1777449804 | 8.89° C | 34% | 1023.9 hPa | - | - | - | - |
| 1777449230 | 8.89° C | 34% | 1024 hPa | - | - | - | - |
| 1777448655 | 8.33° C | 35% | 1024 hPa | - | - | - | - |
| 1777448080 | 7.78° C | 35% | 1023.9 hPa | - | - | - | - |
| 1777447505 | 7.22° C | 35% | 1023.9 hPa | - | - | - | - |
| 1777446930 | 7.22° C | 35% | 1024 hPa | - | - | - | - |
| 1777446355 | 6.67° C | 35% | 1023.9 hPa | - | - | - | - |
| 1777445780 | 6.67° C | 35% | 1023.7 hPa | - | - | - | - |
| 1777445205 | 6.11° C | 35% | 1023.8 hPa | - | - | - | - |
| 1777444631 | 5.56° C | 35% | 1023.8 hPa | - | - | - | - |
| 1777444056 | 5.56° C | 35% | 1023.8 hPa | - | - | - | - |
* Rain since midnight (hover to see other rain measurements)
** Current wind speed in m/s (hover to see current wind gust speed)